TimeEDT,TemperatureF,Dew PointF,Humidity,Sea Level PressureIn,VisibilityMPH,Wind Direction,Wind SpeedMPH,Gust SpeedMPH,PrecipitationIn,Events,Conditions,WindDirDegrees,DateUTC
12:52 AM,48.0,46.9,96,29.94,10.0,Calm,Calm,-,N/A,,Clear,0,2012-10-17 04:52:00
1:52 AM,46.9,45.0,93,29.94,10.0,Calm,Calm,-,N/A,,Clear,0,2012-10-17 05:52:00
2:52 AM,46.0,45.0,96,29.94,9.0,Calm,Calm,-,N/A,,Clear,0,2012-10-17 06:52:00
3:52 AM,44.1,43.0,96,29.94,9.0,Calm,Calm,-,N/A,,Clear,0,2012-10-17 07:52:00
4:52 AM,45.0,43.0,93,29.96,9.0,Calm,Calm,-,N/A,,Clear,0,2012-10-17 08:52:00
5:52 AM,46.0,44.1,93,29.95,10.0,ENE,3.5,-,N/A,,Clear,60,2012-10-17 09:52:00
6:52 AM,46.0,44.1,93,29.97,10.0,Calm,Calm,-,N/A,,Clear,0,2012-10-17 10:52:00
7:52 AM,46.0,44.1,93,29.99,8.0,Calm,Calm,-,N/A,,Clear,0,2012-10-17 11:52:00
8:52 AM,50.0,48.0,93,30.01,7.0,Calm,Calm,-,N/A,,Clear,0,2012-10-17 12:52:00
9:52 AM,55.0,50.0,83,30.02,10.0,Calm,Calm,-,N/A,,Clear,0,2012-10-17 13:52:00
10:52 AM,60.1,51.1,72,30.02,10.0,Calm,Calm,-,N/A,,Clear,0,2012-10-17 14:52:00
11:52 AM,64.0,48.9,58,30.02,10.0,Calm,Calm,-,N/A,,Clear,0,2012-10-17 15:52:00
12:52 PM,66.9,46.9,49,30.00,10.0,SSW,4.6,-,N/A,,Clear,200,2012-10-17 16:52:00
1:52 PM,68.0,46.9,47,29.98,10.0,SSW,4.6,-,N/A,,Clear,200,2012-10-17 17:52:00
2:52 PM,68.0,46.9,47,29.96,10.0,Calm,Calm,-,N/A,,Clear,0,2012-10-17 18:52:00
3:52 PM,70.0,46.0,42,29.94,10.0,Variable,3.5,-,N/A,,Clear,0,2012-10-17 19:52:00
4:52 PM,69.1,45.0,42,29.94,10.0,SE,8.1,-,N/A,,Clear,140,2012-10-17 20:52:00
5:52 PM,66.9,46.0,47,29.94,10.0,South,6.9,-,N/A,,Clear,170,2012-10-17 21:52:00
6:52 PM,59.0,48.9,69,29.95,10.0,ESE,3.5,-,N/A,,Clear,120,2012-10-17 22:52:00
7:52 PM,54.0,48.9,83,29.96,10.0,SE,4.6,-,N/A,,Clear,130,2012-10-17 23:52:00
8:52 PM,53.1,48.0,83,29.98,10.0,Calm,Calm,-,N/A,,Clear,0,2012-10-18 00:52:00
9:52 PM,52.0,46.9,83,29.99,10.0,Calm,Calm,-,N/A,,Clear,0,2012-10-18 01:52:00
10:52 PM,51.1,46.9,86,29.98,10.0,Calm,Calm,-,N/A,,Clear,0,2012-10-18 02:52:00
11:52 PM,48.9,48.0,97,29.96,10.0,Calm,Calm,-,N/A,,Clear,0,2012-10-18 03:52:00